Marion, IN

9:26 AM EST on December 07, 2016 (GMT -0500)
Marion Municipal

Weather History for KMZZ - May, 2014

Change the Weather History Date:

Thursday, May 15, 2014

  Actual Average (KMIE) Record (KMIE)
Temperature  
Mean Temperature 46 °F 61 °F  
Max Temperature 52 °F 72 °F 90 °F (1982)
Min Temperature 40 °F 51 °F 32 °F (1973)
Degree Days  
Heating Degree Days 19 6  
Month to date heating degree days 107  
Since 1 July heating degree days 5699  
Cooling Degree Days 0 2  
Month to date cooling degree days 20  
Year to date cooling degree days 35  
Moisture  
Dew Point 43 °F    
Average Humidity 86    
Maximum Humidity 99    
Minimum Humidity 62    
Precipitation  
Precipitation 0.03 in 0.15 in 1.23 in (1974)
Month to date precipitation 1.97  
Year to date precipitation 13.13  
Sea Level Pressure  
Sea Level Pressure 29.90 in    
Wind  
Wind Speed 10 mph (WNW)    
Max Wind Speed 24 mph    
Max Gust Speed 28 mph    
Visibility 8 miles    
Events Rain    
T = Trace of Precipitation, MM = Missing Value Source: NWS Daily Summary

Daily Weather History Graph

Daily Weather History Graph

Search for Another Location

Airport or City:

Trip Planner

Search our weather history database for the weather conditions in past years. The results will help you decide how hot, cold, wet, or windy it might be!

Date:

Astronomy

May. 15, 2014 Rise Set
Actual Time 6:26 AM EDT 8:52 PM EDT
Civil Twilight 5:55 AM EDT 9:23 PM EDT
Nautical Twilight 5:16 AM EDT 10:02 PM EDT
Astronomical Twilight 4:34 AM EDT 10:44 PM EDT
Moon 9:59 PM EDT (5/15) 7:12 AM EDT (5/15)
Length of Visible Light 15h 28m
Length of Day
14h 26m
Full, 99% of the Moon is Illuminated
May 15
Full
May 21
Last Quarter
May 28
New
Jun 5
First Quarter
Jun 13
Full

Hourly Weather History & Observations

Time (EDT) Temp. Windchill Dew Point Humidity Pressure Visibility Wind Dir Wind Speed Gust Speed Precip Events Conditions
12:15 AM 49.3 °F - 48.0 °F 95% 29.83 in 10.0 mi NNE 4.6 mph 17.3 mph N/A   Overcast
12:35 AM 49.6 °F - 48.4 °F 95% 29.81 in 10.0 mi ENE 10.4 mph - N/A   Overcast
12:55 AM 50.0 °F - 48.7 °F 95% 29.80 in 10.0 mi ENE 6.9 mph - N/A   Overcast
1:15 AM 50.4 °F - 49.3 °F 96% 29.79 in 10.0 mi East 4.6 mph - N/A   Overcast
1:35 AM 50.7 °F - 49.6 °F 96% 29.79 in 10.0 mi Calm Calm - N/A   Overcast
1:55 AM 51.1 °F - 50.2 °F 97% 29.78 in 7.0 mi Calm Calm - 0.02 in   Overcast
2:15 AM 51.6 °F - 50.7 °F 97% 29.77 in 7.0 mi East 4.6 mph - N/A   Overcast
2:35 AM 52.2 °F - 51.3 °F 97% 29.76 in 3.0 mi ESE 3.5 mph - N/A   Overcast
2:55 AM 52.9 °F - 52.3 °F 98% 29.74 in 3.0 mi Calm Calm - N/A Rain Light Rain
3:15 AM 52.9 °F - 52.3 °F 98% 29.74 in 2.5 mi West 11.5 mph - N/A   Overcast
3:35 AM 51.8 °F - 51.3 °F 98% 29.74 in 5.0 mi West 11.5 mph - 0.01 in   Overcast
3:55 AM 51.3 °F - 50.9 °F 99% 29.74 in 7.0 mi West 11.5 mph - 0.01 in   Overcast
4:15 AM 51.1 °F - 50.5 °F 98% 29.74 in 7.0 mi West 11.5 mph - N/A   Overcast
4:35 AM 50.7 °F - 50.0 °F 97% 29.74 in 4.0 mi West 11.5 mph - N/A   Overcast
4:55 AM 50.4 °F - 49.8 °F 98% 29.74 in 5.0 mi West 13.8 mph - N/A   Overcast
5:15 AM 50.2 °F - 49.8 °F 99% 29.75 in 4.0 mi West 16.1 mph - N/A   Overcast
5:35 AM 49.5 °F - 48.9 °F 98% 29.76 in 2.5 mi WSW 13.8 mph - N/A   Overcast
6:15 AM 48.6 °F - 48.2 °F 99% 29.77 in 3.0 mi West 11.5 mph - N/A   Overcast
6:35 AM 48.4 °F - 48.0 °F 99% 29.78 in 5.0 mi WSW 13.8 mph - N/A   Overcast
6:55 AM 47.8 °F - 47.5 °F 99% 29.78 in 7.0 mi West 13.8 mph - N/A   Overcast
7:15 AM 47.7 °F - 47.3 °F 99% 29.78 in 10.0 mi WSW 15.0 mph - N/A   Overcast
7:35 AM 47.7 °F - 47.1 °F 98% 29.79 in 7.0 mi WSW 15.0 mph 19.6 mph N/A   Overcast
7:55 AM 47.5 °F - 46.8 °F 97% 29.79 in 10.0 mi West 17.3 mph - N/A   Overcast
8:15 AM 47.3 °F - 46.6 °F 97% 29.81 in 7.0 mi WSW 13.8 mph - N/A   Overcast
8:35 AM 47.5 °F - 46.6 °F 97% 29.81 in 4.0 mi WSW 12.7 mph - N/A   Overcast
8:55 AM 47.1 °F - 46.4 °F 97% 29.81 in 4.0 mi WSW 13.8 mph - N/A   Overcast
9:15 AM 47.3 °F - 46.4 °F 97% 29.81 in 3.0 mi WSW 15.0 mph - N/A   Overcast
9:35 AM 47.7 °F - 46.8 °F 97% 29.82 in 3.0 mi WSW 15.0 mph - N/A   Overcast
9:55 AM 47.8 °F - 46.9 °F 97% 29.83 in 2.5 mi West 16.1 mph - N/A   Overcast
10:15 AM 47.5 °F - 46.2 °F 95% 29.83 in 2.5 mi West 17.3 mph - N/A   Overcast
10:35 AM 47.8 °F - 45.9 °F 93% 29.84 in 7.0 mi West 16.1 mph - N/A   Overcast
10:55 AM 47.8 °F - 44.6 °F 89% 29.86 in 10.0 mi West 18.4 mph - N/A   Overcast
11:15 AM 47.7 °F - 44.2 °F 88% 29.86 in 7.0 mi West 19.6 mph 25.3 mph N/A   Overcast
11:55 AM 48.0 °F - 43.5 °F 84% 29.88 in 10.0 mi West 19.6 mph 26.5 mph N/A   Overcast
12:15 PM 47.7 °F - 43.3 °F 85% 29.89 in 7.0 mi West 19.6 mph 24.2 mph N/A   Overcast
12:35 PM 47.5 °F - 43.0 °F 84% 29.90 in 10.0 mi West 23.0 mph 27.6 mph N/A   Overcast
1:35 PM 45.7 °F 37.1 °F 41.7 °F 86% 29.94 in 7.0 mi West 24.2 mph - N/A   Overcast
1:55 PM 45.0 °F 37.4 °F 41.2 °F 87% 29.94 in 10.0 mi WNW 18.4 mph - N/A   Overcast
2:15 PM 45.1 °F 37.3 °F 41.2 °F 86% 29.95 in 10.0 mi WNW 19.6 mph 24.2 mph N/A   Overcast
3:15 PM 45.9 °F 38.8 °F 40.5 °F 81% 29.97 in 7.0 mi WNW 17.3 mph - N/A   Overcast
3:35 PM 45.7 °F 37.8 °F 39.2 °F 78% 29.97 in 10.0 mi West 20.7 mph 26.5 mph N/A   Overcast
3:55 PM 45.3 °F 38.1 °F 38.8 °F 78% 29.98 in 7.0 mi WNW 17.3 mph 27.6 mph N/A   Overcast
4:15 PM 45.1 °F 38.4 °F 39.0 °F 79% 29.99 in 10.0 mi WNW 15.0 mph - N/A   Overcast
4:35 PM 45.3 °F 38.1 °F 38.8 °F 78% 29.99 in 10.0 mi WNW 17.3 mph - N/A   Overcast
4:55 PM 45.5 °F 38.6 °F 38.5 °F 76% 30.00 in 10.0 mi WNW 16.1 mph 24.2 mph N/A   Overcast
5:15 PM 45.9 °F 39.7 °F 38.7 °F 76% 30.00 in 10.0 mi NW 13.8 mph 20.7 mph N/A   Overcast
5:35 PM 46.2 °F 39.3 °F 38.8 °F 75% 30.01 in 10.0 mi WNW 17.3 mph 20.7 mph N/A   Overcast
5:55 PM 46.6 °F - 38.5 °F 73% 30.01 in 10.0 mi NW 11.5 mph - N/A   Mostly Cloudy
6:15 PM 46.8 °F - 38.1 °F 72% 30.01 in 10.0 mi NW 12.7 mph - N/A   Mostly Cloudy
6:35 PM 48.0 °F - 38.1 °F 69% 30.02 in 10.0 mi NW 13.8 mph 18.4 mph N/A   Scattered Clouds
6:55 PM 48.0 °F - 37.2 °F 66% 30.03 in 7.0 mi NW 11.5 mph - N/A   Clear
7:15 PM 47.5 °F - 36.7 °F 66% 30.03 in 10.0 mi NW 11.5 mph - N/A   Scattered Clouds
7:35 PM 48.0 °F - 36.9 °F 65% 30.04 in 10.0 mi NNW 8.1 mph 17.3 mph N/A   Clear
7:55 PM 47.7 °F - 36.0 °F 64% 30.04 in 10.0 mi NNW 4.6 mph - N/A   Scattered Clouds
8:15 PM 47.8 °F - 35.8 °F 63% 30.04 in 10.0 mi NNW 5.8 mph - N/A   Clear
8:35 PM 47.5 °F - 34.9 °F 62% 30.04 in 10.0 mi NW 5.8 mph - N/A   Clear
8:55 PM 46.8 °F - 34.5 °F 62% 30.05 in 10.0 mi North 3.5 mph - N/A   Clear
9:15 PM 46.0 °F 43.9 °F 34.9 °F 65% 30.06 in 10.0 mi North 4.6 mph - N/A   Clear
9:35 PM 45.3 °F 44.0 °F 35.1 °F 67% 30.06 in 10.0 mi North 3.5 mph - N/A   Scattered Clouds
9:55 PM 45.0 °F 43.5 °F 34.9 °F 68% 30.06 in 10.0 mi North 3.5 mph - N/A   Scattered Clouds
10:15 PM 43.9 °F - 36.7 °F 76% 30.07 in 10.0 mi Calm Calm - N/A   Mostly Cloudy
10:35 PM 43.7 °F - 36.3 °F 75% 30.07 in 10.0 mi Calm Calm - N/A   Overcast
10:55 PM 42.6 °F - 36.0 °F 77% 30.07 in 10.0 mi Calm Calm - N/A   Scattered Clouds
11:15 PM 42.1 °F - 35.6 °F 78% 30.08 in 7.0 mi Calm Calm - N/A   Scattered Clouds
11:35 PM 40.8 °F - 36.5 °F 85% 30.07 in 7.0 mi Calm Calm - N/A   Mostly Cloudy
11:55 PM 40.1 °F - 36.3 °F 86% 30.07 in 10.0 mi Calm Calm - N/A   Scattered Clouds